Location: Ambatotampy
(18.8181°S, 47.6186°E)
Time: 23:52:13
(UTC+00:00)

Cosmos 1864 Rocket - Pass Details

Date: 21 January 2021
Orbit: 950 x 998 km, 82.9° (Epoch: 24 February)

Event Time Altitude Azimuth Distance (km) Brightness Sun altitude
Rises 00:24:01 0° 191° (S) 3,677 7.8 -26.9°
Reaches altitude 10° 00:26:34 10° 194° (SSW) 2,731 7.1 -26.4°
Maximum altitude 00:32:42 60° 272° (W) 1,120 4.5 -25.2°
Enters shadow 00:33:18 57° 297° (WNW) 1,147 4.5 -25.1°
